TimeEDT,TemperatureF,Dew PointF,Humidity,Sea Level PressureIn,VisibilityMPH,Wind Direction,Wind SpeedMPH,Gust SpeedMPH,PrecipitationIn,Events,Conditions,WindDirDegrees,DateUTC
12:56 AM,50.0,46.0,86,29.95,10.0,West,4.6,-,N/A,,Mostly Cloudy,260,2013-08-14 04:56:00
1:56 AM,48.9,45.0,86,29.95,10.0,WSW,4.6,-,N/A,,Clear,250,2013-08-14 05:56:00
2:56 AM,50.0,46.9,89,29.94,10.0,West,5.8,-,N/A,,Overcast,260,2013-08-14 06:56:00
3:56 AM,48.0,46.0,93,29.94,10.0,WSW,4.6,-,N/A,,Partly Cloudy,250,2013-08-14 07:56:00
4:56 AM,48.9,46.0,90,29.95,10.0,West,6.9,-,N/A,,Scattered Clouds,260,2013-08-14 08:56:00
5:56 AM,51.1,48.0,89,29.96,4.0,West,8.1,-,N/A,,Overcast,280,2013-08-14 09:56:00
6:09 AM,51.8,48.2,88,29.97,8.0,West,6.9,-,N/A,,Mostly Cloudy,260,2013-08-14 10:09:00
6:56 AM,51.1,48.0,89,29.99,10.0,WNW,6.9,-,N/A,,Overcast,290,2013-08-14 10:56:00
7:14 AM,51.8,48.2,88,29.99,10.0,WNW,9.2,-,N/A,,Overcast,290,2013-08-14 11:14:00
7:40 AM,51.8,48.2,88,29.99,10.0,West,6.9,-,N/A,,Scattered Clouds,270,2013-08-14 11:40:00
7:56 AM,53.1,50.0,89,29.99,10.0,West,6.9,-,N/A,,Mostly Cloudy,280,2013-08-14 11:56:00
8:26 AM,53.6,48.2,82,30.00,10.0,West,9.2,-,N/A,,Overcast,270,2013-08-14 12:26:00
8:40 AM,53.6,50.0,88,30.01,10.0,West,8.1,-,N/A,,Overcast,260,2013-08-14 12:40:00
8:56 AM,54.0,48.9,83,30.01,10.0,WNW,9.2,16.1,N/A,,Overcast,300,2013-08-14 12:56:00
9:56 AM,55.0,48.9,80,30.03,10.0,WNW,8.1,-,N/A,,Overcast,290,2013-08-14 13:56:00
10:32 AM,57.2,50.0,77,30.05,10.0,WNW,11.5,-,N/A,,Overcast,300,2013-08-14 14:32:00
10:56 AM,59.0,50.0,72,30.05,10.0,NW,9.2,-,N/A,,Overcast,310,2013-08-14 14:56:00
11:21 AM,60.8,50.0,68,30.06,10.0,WNW,11.5,18.4,N/A,,Overcast,300,2013-08-14 15:21:00
11:56 AM,61.0,50.0,67,30.06,10.0,WNW,9.2,-,N/A,,Overcast,290,2013-08-14 15:56:00
12:56 PM,62.1,50.0,65,30.07,10.0,WNW,11.5,17.3,N/A,,Overcast,300,2013-08-14 16:56:00
1:56 PM,64.9,51.1,61,30.06,10.0,WNW,11.5,18.4,N/A,,Mostly Cloudy,290,2013-08-14 17:56:00
2:56 PM,66.9,50.0,54,30.05,10.0,WNW,13.8,18.4,N/A,,Mostly Cloudy,290,2013-08-14 18:56:00
3:56 PM,64.9,46.9,52,30.05,10.0,WNW,9.2,-,N/A,,Mostly Cloudy,300,2013-08-14 19:56:00
4:56 PM,66.9,46.9,49,30.06,10.0,Variable,4.6,-,N/A,,Scattered Clouds,0,2013-08-14 20:56:00
5:56 PM,64.0,46.0,52,30.08,10.0,NW,9.2,-,N/A,,Clear,310,2013-08-14 21:56:00
6:56 PM,63.0,45.0,52,30.08,10.0,NW,8.1,-,N/A,,Clear,310,2013-08-14 22:56:00
7:56 PM,61.0,46.0,58,30.09,10.0,NNW,4.6,-,N/A,,Clear,330,2013-08-14 23:56:00
8:56 PM,57.9,45.0,62,30.12,10.0,WNW,4.6,-,N/A,,Clear,300,2013-08-15 00:56:00
9:56 PM,55.9,45.0,67,30.14,10.0,NW,3.5,-,N/A,,Clear,310,2013-08-15 01:56:00
10:56 PM,55.0,45.0,69,30.14,10.0,NW,4.6,-,N/A,,Clear,310,2013-08-15 02:56:00
11:56 PM,54.0,46.0,75,30.15,10.0,NW,3.5,-,N/A,,Clear,310,2013-08-15 03:56:00